Orbital Elements at Epoch 2459200.5 (2020-Dec-17.0) TDB
Reference: JPL 22 (heliocentric ecliptic J2000)
Element | Value | Uncertainty (1-sigma) | Units |
e | .2040824890187841 | 5.3237e-08 | |
a | 2.758722831144282 | 1.4689e-08 | au |
q | 2.19571580925141 | 1.5005e-07 | au |
i | 2.853387369299639 | 5.6137e-06 | deg |
node | 323.8445498938421 | 8.31e-05 | deg |
peri | 45.19799808661914 | 8.3716e-05 | deg |
M | 243.8212159325527 | 1.0307e-05 | deg |
tp | 2459740.613281223341 (2022-Jun-10.11328122) | 5.0232e-05 | TDB |
period | 1673.634156194308 4.58 | 1.3367e-05 3.66e-08 | d yr |
n | .215100772571831 | 1.718e-09 | deg/d |
Q | 3.321729853037153 | 1.7687e-08 | au |
|
| | Orbit Determination Parameters
Additional Information
|